{"data":{"norad_id":58794,"intl_designator":"2024-012H","name":"STARLINK-31192","alt_names":[],"object_type":"PAYLOAD","status":"ACTIVE","operator":null,"country":"US","launch_date":"2024-01-15","launch_site_code":"AFETR","launch_vehicle":null,"mission":null,"orbit_class":"UNKNOWN","rcs_meters":null,"size_class":null,"mass_kg":null,"dimensions":null,"purposes":["comms"],"wikipedia_slug":null,"has_3d_model":false,"image_url":null,"decayed_at":null,"tle_current":{"epoch":"2026-09-20T22:38:14.004960Z","epoch_age_seconds":114337,"freshness":"FRESH","line1":"1 58794U 24012H   26263.94321765  .00000586  00000+0  30826-4 0  9999","line2":"2 58794  43.0015 142.8810 0001419 268.5593  91.5096 15.27579757151096","mean_motion":15.27579757,"eccentricity":0.0001419,"inclination_deg":43.0015,"raan_deg":142.881,"arg_perigee_deg":268.5593,"mean_anomaly_deg":91.5096,"bstar":3.0826e-5,"rev_number":15109,"period_min":94.26676370915,"perigee_km":482.07622125889,"apogee_km":484.02342607945,"semimajor_km":6861.1868236692,"source":"CELESTRAK","updated_at":"2026-09-21T09:00:33.979958Z"}}}